User: anonymous   Login
Location: Unspecified
(0.0000°N, 0.0000°E)
Time: 23:04:26
(UTC+01:00)
Language:

ARIANE 5 R/B - Orbit

View from above orbital plane
View from above orbital plane
View from above satellite
View from above satellite

Ground track
Ground track

The orbit data is extracted from the following two-line orbital elements,

1 27510U 02040C   17328.49033789 -.00000146  00000-0 -52727-4 0  9995
2 27510   4.7890 146.6625 7171726  98.0905 349.8477  2.27204906126550
Epoch (UTC): 24 November 2017 11:46:05
Eccentricity: 0.7171726
inclination: 4.7890°
perigee height: 534 km
apogee height: 35591 km
right ascension of ascending node: 146.6625°
argument of perigee: 98.0905°
revolutions per day: 2.27204906
mean anomaly at epoch: 349.8477°
orbit number at epoch: 12655

The dashed part of the orbit path shows where the satellite is in the earth's shadow,  

DLR